Flag for U.S.A. Weather past 2 weeks in Irving, Texas, U.S.A.

Now
79 °F

Mostly cloudy.


Feels Like: 81 °F
Forecast: 79 / 96 °F
Wind: 8 mph from South

Location: Dallas / Fort Worth International Airport

Current Time: Aug 29, 2015 at 7:45:02 AM

Latest Report: Aug 29, 2015 at 6:53 AM


Visibility: 10 mi

Pressure: 29.95 "Hg

Humidity: 60%

Dew point: 64 °F

Location of IrvingLocation

Historic Weather in Irving — Graph

°F

Irving temperature yesterday

Maximum temperature yesterday: 97 °F (at 3:53 PM)
Minimum temperature yesterday: 72 °F (at 6:53 AM)
Average temperature yesterday: 84 °F

Past Weeks' High & Low Weather Summary

 TemperatureHumidityPressure
High98 °F (Aug 18, 3:53 PM)93% (Aug 21, 3:53 AM)30.13 "Hg (Aug 21, 3:53 AM)
Low65 °F (Aug 20, 4:59 AM)23% (Aug 26, 4:53 PM)29.66 "Hg (Aug 18, 7:53 PM)
Average84 °F55%29.94 "Hg
* Reported Aug 14 6:53 AM — Aug 29 6:53 AM, Irving, Weather by CustomWeather, © 2015

Note: Actual official high and low records may vary slightly from our data, if they occured in-between our weather recording intervals... More about our weather records

Advertising

Irving weather history for previous 24 hours

 ConditionsComfort  
Time TempWeatherWind HumidityBarometerVisibility
6:53 AM
Sat, Aug 29
79 °FMostly cloudy.8 mph60%29.95 "Hg10 mi
5:53 AM79 °FMostly cloudy.6 mph60%29.93 "Hg10 mi
4:53 AM81 °FOvercast.7 mph54%29.94 "Hg10 mi
3:53 AM81 °FOvercast.5 mph54%29.94 "Hg10 mi
2:53 AM82 °FOvercast.8 mph53%29.93 "Hg10 mi
1:53 AM83 °FPassing clouds.10 mph50%29.94 "Hg10 mi
12:53 AM83 °FPassing clouds.10 mph50%29.95 "Hg10 mi
11:53 PM
Fri, Aug 28
84 °FPartly cloudy.13 mph49%29.95 "Hg10 mi
10:53 PM85 °FPartly cloudy.9 mph50%29.95 "Hg10 mi
9:53 PM86 °FPartly cloudy.10 mph45%29.92 "Hg10 mi
8:53 PM87 °FScattered clouds.10 mph45%29.90 "Hg10 mi
7:53 PM91 °FScattered clouds.14 mph38%29.88 "Hg10 mi
6:53 PM93 °FScattered clouds.13 mph36%29.88 "Hg10 mi
5:53 PM96 °FPartly sunny.14 mph32%29.87 "Hg10 mi
4:53 PM96 °FPartly sunny.10 mph32%29.88 "Hg10 mi
3:53 PM97 °FPartly sunny.10 mph30%29.89 "Hg10 mi
2:53 PM95 °FPassing clouds.12 mph31%29.92 "Hg10 mi
1:53 PM93 °FPassing clouds.5 mph33%29.94 "Hg10 mi
12:53 PM90 °FPassing clouds.6 mph38%29.97 "Hg10 mi
11:53 AM88 °FSunny.7 mph40%29.98 "Hg10 mi
10:53 AM86 °FScattered clouds.12 mph45%29.98 "Hg10 mi
9:53 AM81 °FPassing clouds.12 mph53%29.98 "Hg10 mi
8:53 AM77 °FPassing clouds.15 mph60%29.98 "Hg10 mi
7:53 AM74 °FPassing clouds.7 mph69%29.98 "Hg10 mi
Weather by CustomWeather, © 2015

See weather overviewHow to use our weather pages